Time,TemperatureF,DewpointF,PressureIn,WindDirection,WindDirectionDegrees,WindSpeedMPH,WindSpeedGustMPH,Humidity,HourlyPrecipIn,Conditions,Clouds,dailyrainin,SoftwareType,DateUTC
2013-01-10 00:00:00,48.4,46.2,30.45,NNW,338,0.0,0.0,92,0.00,CLR,,0.00,WeatherDisplay:10.37,2013-01-10 05:00:00,
2013-01-10 00:02:00,48.4,46.2,30.44,NNW,338,0.0,0.0,92,0.00,CLR,,0.00,WeatherDisplay:10.37,2013-01-10 05:02:00,
2013-01-10 00:04:00,48.4,46.2,30.45,NNW,338,0.0,0.0,92,0.00,CLR,,0.00,WeatherDisplay:10.37,2013-01-10 05:04:00,
2013-01-10 00:09:00,48.4,46.2,30.44,NNW,338,0.0,0.0,92,0.00,CLR,,0.00,WeatherDisplay:10.37,2013-01-10 05:09:00,
2013-01-10 00:14:00,48.4,46.2,30.44,NNW,338,0.0,0.0,92,0.00,CLR,,0.00,WeatherDisplay:10.37,2013-01-10 05:14:00,
2013-01-10 00:19:00,48.2,46.0,30.45,NNW,338,0.0,0.0,92,0.00,CLR,,0.00,WeatherDisplay:10.37,2013-01-10 05:19:00,
2013-01-10 00:24:00,48.0,45.8,30.45,NNW,338,0.0,0.0,92,0.00,CLR,,0.00,WeatherDisplay:10.37,2013-01-10 05:24:00,
2013-01-10 00:29:00,48.0,45.5,30.45,NNW,338,0.0,0.0,91,0.00,CLR,,0.00,WeatherDisplay:10.37,2013-01-10 05:29:00,
2013-01-10 00:34:00,47.8,45.3,30.45,NNW,338,0.0,0.0,91,0.00,CLR,,0.00,WeatherDisplay:10.37,2013-01-10 05:34:00,
2013-01-10 00:39:00,47.8,45.3,30.45,NNW,338,0.0,0.0,91,0.00,CLR,,0.00,WeatherDisplay:10.37,2013-01-10 05:39:00,
2013-01-10 00:44:00,47.5,45.0,30.45,NNW,338,0.0,0.0,91,0.00,CLR,,0.00,WeatherDisplay:10.37,2013-01-10 05:44:00,
2013-01-10 00:49:00,47.5,45.0,30.45,NNW,338,0.0,0.0,91,0.00,CLR,,0.00,WeatherDisplay:10.37,2013-01-10 05:49:00,
2013-01-10 00:54:00,47.3,44.8,30.45,NNW,338,0.0,0.0,91,0.00,CLR,,0.00,WeatherDisplay:10.37,2013-01-10 05:54:00,
2013-01-10 00:59:00,47.1,44.6,30.45,NNW,338,0.0,0.0,91,0.00,CLR,,0.00,WeatherDisplay:10.37,2013-01-10 05:59:00,
2013-01-10 01:04:00,47.1,44.6,30.45,NNW,338,0.0,0.0,91,0.00,FEW,,0.00,WeatherDisplay:10.37,2013-01-10 06:04:00,
2013-01-10 01:09:00,46.9,44.4,30.45,NNW,338,0.0,0.0,91,0.00,FEW,,0.00,WeatherDisplay:10.37,2013-01-10 06:09:00,
2013-01-10 01:14:00,46.8,44.3,30.45,NNW,338,0.0,0.0,91,0.00,FEW,,0.00,WeatherDisplay:10.37,2013-01-10 06:14:00,
2013-01-10 01:20:00,46.6,44.1,30.45,NNW,338,0.0,0.0,91,0.00,FEW,,0.00,WeatherDisplay:10.37,2013-01-10 06:20:00,
2013-01-10 01:25:00,46.6,44.1,30.45,NNW,338,0.0,0.0,91,0.00,FEW,,0.00,WeatherDisplay:10.37,2013-01-10 06:25:00,
2013-01-10 01:30:00,46.2,43.7,30.45,NNW,338,0.0,0.0,91,0.00,FEW,,0.00,WeatherDisplay:10.37,2013-01-10 06:30:00,
2013-01-10 01:35:00,46.2,43.7,30.45,NNW,338,0.0,0.0,91,0.00,FEW,,0.00,WeatherDisplay:10.37,2013-01-10 06:35:00,
2013-01-10 01:40:00,46.2,43.7,30.45,NNW,338,0.0,0.0,91,0.00,FEW,,0.00,WeatherDisplay:10.37,2013-01-10 06:40:00,
2013-01-10 01:45:00,46.0,43.6,30.45,NNW,338,0.0,0.0,91,0.00,FEW,,0.00,WeatherDisplay:10.37,2013-01-10 06:45:00,
2013-01-10 01:50:00,46.0,43.6,30.45,NNW,338,0.0,0.0,91,0.00,FEW,,0.00,WeatherDisplay:10.37,2013-01-10 06:50:00,
2013-01-10 01:55:00,45.7,43.2,30.45,NNW,338,0.0,0.0,91,0.00,FEW,,0.00,WeatherDisplay:10.37,2013-01-10 06:55:00,
2013-01-10 02:00:00,45.5,43.0,30.45,NNW,338,0.0,0.0,91,0.00,FEW,,0.00,WeatherDisplay:10.37,2013-01-10 07:00:00,
2013-01-10 02:05:00,45.5,43.0,30.45,North,0,3.5,3.5,91,0.00,CLR,,0.00,WeatherDisplay:10.37,2013-01-10 07:05:00,
2013-01-10 02:10:00,45.5,43.0,30.44,North,0,0.0,0.0,91,0.00,CLR,,0.00,WeatherDisplay:10.37,2013-01-10 07:10:00,
2013-01-10 02:15:00,45.5,43.0,30.45,North,0,0.0,0.0,91,0.00,CLR,,0.00,WeatherDisplay:10.37,2013-01-10 07:15:00,
2013-01-10 02:20:00,45.5,43.0,30.45,North,0,0.0,0.0,91,0.00,CLR,,0.00,WeatherDisplay:10.37,2013-01-10 07:20:00,
2013-01-10 02:26:00,45.5,43.0,30.45,North,0,0.0,0.0,91,0.00,CLR,,0.00,WeatherDisplay:10.37,2013-01-10 07:26:00,
2013-01-10 02:31:00,45.5,43.0,30.45,North,0,0.0,0.0,91,0.00,CLR,,0.00,WeatherDisplay:10.37,2013-01-10 07:31:00,
2013-01-10 02:36:00,45.5,43.0,30.45,North,0,0.0,0.0,91,0.00,CLR,,0.00,WeatherDisplay:10.37,2013-01-10 07:36:00,
2013-01-10 02:41:00,45.5,43.0,30.45,North,0,0.0,0.0,91,0.00,CLR,,0.00,WeatherDisplay:10.37,2013-01-10 07:41:00,
2013-01-10 02:46:00,45.5,43.0,30.45,North,0,0.0,0.0,91,0.00,CLR,,0.00,WeatherDisplay:10.37,2013-01-10 07:46:00,
2013-01-10 02:51:00,45.3,43.1,30.44,North,0,0.0,0.0,92,0.00,CLR,,0.00,WeatherDisplay:10.37,2013-01-10 07:51:00,
2013-01-10 02:56:00,45.3,42.8,30.44,North,0,0.0,0.0,91,0.00,CLR,,0.00,WeatherDisplay:10.37,2013-01-10 07:56:00,
2013-01-10 03:01:00,45.3,43.1,30.44,North,0,0.0,0.0,92,0.00,CLR,,0.00,WeatherDisplay:10.37,2013-01-10 08:01:00,
2013-01-10 03:06:00,45.3,43.1,30.45,North,0,0.0,0.0,92,0.00,CLR,,0.00,WeatherDisplay:10.37,2013-01-10 08:06:00,
2013-01-10 03:11:00,45.3,43.1,30.45,North,0,0.0,0.0,92,0.00,CLR,,0.00,WeatherDisplay:10.37,2013-01-10 08:11:00,
2013-01-10 03:16:00,45.3,43.1,30.45,North,0,0.0,0.0,92,0.00,CLR,,0.00,WeatherDisplay:10.37,2013-01-10 08:16:00,
2013-01-10 03:21:00,45.1,43.0,30.45,North,0,0.0,0.0,92,0.00,CLR,,0.00,WeatherDisplay:10.37,2013-01-10 08:21:00,
2013-01-10 03:26:00,45.1,43.0,30.45,North,0,0.0,0.0,92,0.00,CLR,,0.00,WeatherDisplay:10.37,2013-01-10 08:26:00,
2013-01-10 03:31:00,45.1,43.0,30.45,North,0,0.0,0.0,92,0.00,CLR,,0.00,WeatherDisplay:10.37,2013-01-10 08:31:00,
2013-01-10 03:36:00,45.1,43.0,30.45,North,0,0.0,0.0,92,0.00,CLR,,0.00,WeatherDisplay:10.37,2013-01-10 08:36:00,
2013-01-10 03:42:00,45.1,43.0,30.45,North,0,0.0,0.0,92,0.00,CLR,,0.00,WeatherDisplay:10.37,2013-01-10 08:42:00,
2013-01-10 03:47:00,45.1,43.0,30.45,North,0,0.0,0.0,92,0.00,CLR,,0.00,WeatherDisplay:10.37,2013-01-10 08:47:00,
2013-01-10 03:52:00,45.1,43.0,30.44,North,0,0.0,0.0,92,0.00,CLR,,0.00,WeatherDisplay:10.37,2013-01-10 08:52:00,
2013-01-10 03:57:00,45.1,43.0,30.45,North,0,0.0,0.0,92,0.00,CLR,,0.00,WeatherDisplay:10.37,2013-01-10 08:57:00,
2013-01-10 04:02:00,45.1,43.0,30.44,North,0,0.0,0.0,92,0.00,FEW,,0.00,WeatherDisplay:10.37,2013-01-10 09:02:00,
2013-01-10 04:07:00,45.1,43.0,30.45,North,0,0.0,0.0,92,0.00,FEW,,0.00,WeatherDisplay:10.37,2013-01-10 09:07:00,
2013-01-10 04:12:00,45.1,43.0,30.45,North,0,0.0,0.0,92,0.00,FEW,,0.00,WeatherDisplay:10.37,2013-01-10 09:12:00,
2013-01-10 04:17:00,45.1,43.0,30.45,North,0,0.0,0.0,92,0.00,FEW,,0.00,WeatherDisplay:10.37,2013-01-10 09:17:00,
2013-01-10 04:22:00,45.1,43.0,30.44,North,0,0.0,0.0,92,0.00,FEW,,0.00,WeatherDisplay:10.37,2013-01-10 09:22:00,
2013-01-10 04:27:00,45.1,43.0,30.44,North,0,0.0,0.0,92,0.00,FEW,,0.00,WeatherDisplay:10.37,2013-01-10 09:27:00,
2013-01-10 04:32:00,45.1,43.0,30.45,North,0,0.0,0.0,92,0.00,FEW,,0.00,WeatherDisplay:10.37,2013-01-10 09:32:00,
2013-01-10 04:37:00,45.1,43.0,30.45,North,0,0.0,0.0,92,0.00,FEW,,0.00,WeatherDisplay:10.37,2013-01-10 09:37:00,
2013-01-10 04:42:00,45.1,43.0,30.45,North,0,0.0,0.0,92,0.00,FEW,,0.00,WeatherDisplay:10.37,2013-01-10 09:42:00,
2013-01-10 04:47:00,45.1,43.0,30.44,North,0,0.0,0.0,92,0.00,FEW,,0.00,WeatherDisplay:10.37,2013-01-10 09:47:00,
2013-01-10 04:52:00,45.1,43.0,30.44,North,0,0.0,0.0,92,0.00,FEW,,0.00,WeatherDisplay:10.37,2013-01-10 09:52:00,
2013-01-10 04:58:00,45.1,43.0,30.44,North,0,0.0,0.0,92,0.00,FEW,,0.00,WeatherDisplay:10.37,2013-01-10 09:58:00,
2013-01-10 05:03:00,45.1,43.0,30.44,North,0,0.0,0.0,92,0.00,OVC,,0.00,WeatherDisplay:10.37,2013-01-10 10:03:00,
2013-01-10 05:08:00,45.1,43.0,30.43,North,0,0.0,0.0,92,0.00,OVC,,0.00,WeatherDisplay:10.37,2013-01-10 10:08:00,
2013-01-10 05:13:00,45.0,42.8,30.43,North,0,0.0,0.0,92,0.00,OVC,,0.00,WeatherDisplay:10.37,2013-01-10 10:13:00,
2013-01-10 05:18:00,44.8,42.6,30.43,North,0,0.0,0.0,92,0.00,OVC,,0.00,WeatherDisplay:10.37,2013-01-10 10:18:00,
2013-01-10 05:23:00,44.8,42.6,30.43,North,0,0.0,0.0,92,0.00,OVC,,0.00,WeatherDisplay:10.37,2013-01-10 10:23:00,
2013-01-10 05:28:00,44.8,42.6,30.43,North,0,0.0,0.0,92,0.00,OVC,,0.00,WeatherDisplay:10.37,2013-01-10 10:28:00,
2013-01-10 05:33:00,44.8,42.6,30.43,North,0,0.0,0.0,92,0.00,OVC,,0.00,WeatherDisplay:10.37,2013-01-10 10:33:00,
2013-01-10 05:38:00,44.8,42.6,30.43,North,0,0.0,0.0,92,0.00,OVC,,0.00,WeatherDisplay:10.37,2013-01-10 10:38:00,
2013-01-10 05:43:00,44.8,42.6,30.43,North,0,0.0,0.0,92,0.00,OVC,,0.00,WeatherDisplay:10.37,2013-01-10 10:43:00,
2013-01-10 05:48:00,44.8,42.6,30.43,North,0,0.0,0.0,92,0.00,OVC,,0.00,WeatherDisplay:10.37,2013-01-10 10:48:00,
2013-01-10 05:53:00,44.6,42.4,30.44,North,0,0.0,0.0,92,0.00,OVC,,0.00,WeatherDisplay:10.37,2013-01-10 10:53:00,
2013-01-10 05:58:00,44.4,42.2,30.44,North,0,0.0,0.0,92,0.00,OVC,,0.00,WeatherDisplay:10.37,2013-01-10 10:58:00,
2013-01-10 06:03:00,44.4,42.2,30.44,North,0,0.0,0.0,92,0.00,CLR,,0.00,WeatherDisplay:10.37,2013-01-10 11:03:00,
2013-01-10 06:08:00,44.4,42.2,30.44,North,0,0.0,0.0,92,0.00,CLR,,0.00,WeatherDisplay:10.37,2013-01-10 11:08:00,
2013-01-10 06:14:00,44.4,42.2,30.44,North,0,0.0,0.0,92,0.00,CLR,,0.00,WeatherDisplay:10.37,2013-01-10 11:14:00,
2013-01-10 06:19:00,44.4,42.2,30.44,North,0,0.0,0.0,92,0.00,CLR,,0.00,WeatherDisplay:10.37,2013-01-10 11:19:00,
2013-01-10 06:24:00,44.2,42.1,30.44,North,0,0.0,0.0,92,0.00,CLR,,0.00,WeatherDisplay:10.37,2013-01-10 11:24:00,
2013-01-10 06:29:00,44.2,42.1,30.45,North,0,0.0,0.0,92,0.00,CLR,,0.00,WeatherDisplay:10.37,2013-01-10 11:29:00,
2013-01-10 06:34:00,44.2,42.1,30.45,North,0,0.0,0.0,92,0.00,CLR,,0.00,WeatherDisplay:10.37,2013-01-10 11:34:00,
2013-01-10 06:39:00,44.2,42.1,30.45,North,0,0.0,0.0,92,0.00,CLR,,0.00,WeatherDisplay:10.37,2013-01-10 11:39:00,
2013-01-10 06:44:00,44.2,42.1,30.45,North,0,0.0,0.0,92,0.00,CLR,,0.00,WeatherDisplay:10.37,2013-01-10 11:44:00,
2013-01-10 06:49:00,44.1,41.9,30.44,North,0,0.0,0.0,92,0.00,CLR,,0.00,WeatherDisplay:10.37,2013-01-10 11:49:00,
2013-01-10 06:54:00,43.9,41.7,30.45,North,0,0.0,0.0,92,0.00,CLR,,0.00,WeatherDisplay:10.37,2013-01-10 11:54:00,
2013-01-10 06:59:00,43.7,41.5,30.45,North,0,0.0,0.0,92,0.00,CLR,,0.00,WeatherDisplay:10.37,2013-01-10 11:59:00,
2013-01-10 07:04:00,43.5,41.4,30.45,North,0,0.0,0.0,92,0.00,,,0.00,WeatherDisplay:10.37,2013-01-10 12:04:00,
2013-01-10 07:09:00,43.5,41.4,30.45,North,0,0.0,0.0,92,0.00,,,0.00,WeatherDisplay:10.37,2013-01-10 12:09:00,
2013-01-10 07:14:00,43.5,41.4,30.46,North,0,0.0,0.0,92,0.00,,,0.00,WeatherDisplay:10.37,2013-01-10 12:14:00,
2013-01-10 07:19:00,43.5,41.4,30.46,North,0,0.0,0.0,92,0.00,,,0.00,WeatherDisplay:10.37,2013-01-10 12:19:00,
2013-01-10 07:24:00,43.5,41.4,30.46,North,0,0.0,0.0,92,0.00,,,0.00,WeatherDisplay:10.37,2013-01-10 12:24:00,
2013-01-10 07:30:00,43.5,41.4,30.46,North,0,0.0,0.0,92,0.00,,,0.00,WeatherDisplay:10.37,2013-01-10 12:30:00,
2013-01-10 07:35:00,43.5,41.4,30.45,North,0,0.0,0.0,92,0.00,,,0.00,WeatherDisplay:10.37,2013-01-10 12:35:00,
2013-01-10 07:40:00,43.5,41.4,30.46,North,0,0.0,0.0,92,0.00,,,0.00,WeatherDisplay:10.37,2013-01-10 12:40:00,
2013-01-10 07:45:00,43.5,41.4,30.46,North,0,0.0,0.0,92,0.00,,,0.00,WeatherDisplay:10.37,2013-01-10 12:45:00,
2013-01-10 07:50:00,43.3,41.2,30.46,North,0,0.0,0.0,92,0.00,,,0.00,WeatherDisplay:10.37,2013-01-10 12:50:00,
2013-01-10 07:55:00,43.5,41.4,30.46,North,0,0.0,0.0,92,0.00,,,0.00,WeatherDisplay:10.37,2013-01-10 12:55:00,
2013-01-10 08:00:00,43.3,40.9,30.46,North,0,0.0,0.0,91,0.00,,,0.00,WeatherDisplay:10.37,2013-01-10 13:00:00,
2013-01-10 08:05:00,43.3,40.9,30.46,North,0,0.0,0.0,91,0.00,OVC,,0.00,WeatherDisplay:10.37,2013-01-10 13:05:00,
2013-01-10 08:10:00,43.3,41.2,30.46,North,0,0.0,0.0,92,0.00,OVC,,0.00,WeatherDisplay:10.37,2013-01-10 13:10:00,
2013-01-10 08:15:00,43.5,41.4,30.47,North,0,0.0,0.0,92,0.00,OVC,,0.00,WeatherDisplay:10.37,2013-01-10 13:15:00,
2013-01-10 08:20:00,43.5,41.4,30.46,North,0,0.0,0.0,92,0.00,OVC,,0.00,WeatherDisplay:10.37,2013-01-10 13:20:00,
2013-01-10 08:25:00,43.5,41.4,30.46,North,0,0.0,0.0,92,0.00,OVC,,0.00,WeatherDisplay:10.37,2013-01-10 13:25:00,
2013-01-10 08:30:00,43.5,41.4,30.47,North,0,0.0,0.0,92,0.00,OVC,,0.00,WeatherDisplay:10.37,2013-01-10 13:30:00,
2013-01-10 08:35:00,43.7,41.5,30.47,North,0,0.0,0.0,92,0.00,OVC,,0.00,WeatherDisplay:10.37,2013-01-10 13:35:00,
2013-01-10 08:40:00,43.7,41.5,30.47,North,0,0.0,0.0,92,0.00,OVC,,0.00,WeatherDisplay:10.37,2013-01-10 13:40:00,
2013-01-10 08:46:00,43.9,41.7,30.47,North,0,0.0,0.0,92,0.00,OVC,,0.00,WeatherDisplay:10.37,2013-01-10 13:46:00,
2013-01-10 08:51:00,43.9,41.7,30.47,North,0,0.0,0.0,92,0.00,OVC,,0.00,WeatherDisplay:10.37,2013-01-10 13:51:00,
2013-01-10 08:56:00,44.2,42.1,30.47,North,0,0.0,0.0,92,0.00,OVC,,0.00,WeatherDisplay:10.37,2013-01-10 13:56:00,
2013-01-10 09:01:00,44.4,42.2,30.48,North,0,0.0,0.0,92,0.00,,,0.00,WeatherDisplay:10.37,2013-01-10 14:01:00,
2013-01-10 09:06:00,44.4,42.2,30.48,North,0,0.0,0.0,92,0.00,,,0.00,WeatherDisplay:10.37,2013-01-10 14:06:00,
2013-01-10 09:11:00,44.4,42.2,30.47,North,0,0.0,0.0,92,0.00,,,0.00,WeatherDisplay:10.37,2013-01-10 14:11:00,
2013-01-10 09:16:00,44.6,42.4,30.47,North,0,0.0,0.0,92,0.00,,,0.00,WeatherDisplay:10.37,2013-01-10 14:16:00,
2013-01-10 09:21:00,44.8,42.6,30.48,North,0,0.0,0.0,92,0.00,,,0.00,WeatherDisplay:10.37,2013-01-10 14:21:00,
2013-01-10 09:26:00,45.1,43.0,30.48,North,0,0.0,0.0,92,0.00,,,0.00,WeatherDisplay:10.37,2013-01-10 14:26:00,
2013-01-10 09:31:00,45.1,43.0,30.48,North,0,0.0,0.0,92,0.00,,,0.00,WeatherDisplay:10.37,2013-01-10 14:31:00,
2013-01-10 09:36:00,45.5,43.3,30.48,North,0,0.0,0.0,92,0.00,,,0.00,WeatherDisplay:10.37,2013-01-10 14:36:00,
2013-01-10 09:41:00,45.7,43.8,30.48,North,0,0.0,0.0,93,0.00,,,0.00,WeatherDisplay:10.37,2013-01-10 14:41:00,
2013-01-10 09:46:00,46.0,44.1,30.48,North,0,0.0,0.0,93,0.00,,,0.00,WeatherDisplay:10.37,2013-01-10 14:46:00,
2013-01-10 09:51:00,46.2,44.3,30.48,North,0,0.0,0.0,93,0.00,,,0.00,WeatherDisplay:10.37,2013-01-10 14:51:00,
2013-01-10 09:56:00,46.8,44.8,30.48,North,0,0.0,0.0,93,0.00,,,0.00,WeatherDisplay:10.37,2013-01-10 14:56:00,
2013-01-10 10:02:00,47.1,45.2,30.48,NE,45,0.0,0.0,93,0.00,OVC,,0.00,WeatherDisplay:10.37,2013-01-10 15:02:00,
2013-01-10 10:07:00,48.0,46.4,30.49,NE,45,0.0,0.0,94,0.00,OVC,,0.00,WeatherDisplay:10.37,2013-01-10 15:07:00,
2013-01-10 10:12:00,48.4,46.7,30.48,NE,45,0.0,0.0,94,0.00,OVC,,0.00,WeatherDisplay:10.37,2013-01-10 15:12:00,
2013-01-10 10:17:00,48.9,47.3,30.48,NE,45,0.0,0.0,94,0.00,OVC,,0.00,WeatherDisplay:10.37,2013-01-10 15:17:00,
2013-01-10 10:22:00,49.3,47.6,30.48,NW,315,0.0,0.0,94,0.00,OVC,,0.00,WeatherDisplay:10.37,2013-01-10 15:22:00,
2013-01-10 10:27:00,49.8,48.2,30.48,NW,315,0.0,0.0,94,0.00,OVC,,0.00,WeatherDisplay:10.37,2013-01-10 15:27:00,
2013-01-10 10:32:00,50.2,48.5,30.48,NW,315,0.0,0.0,94,0.00,OVC,,0.00,WeatherDisplay:10.37,2013-01-10 15:32:00,
2013-01-10 10:37:00,50.4,48.7,30.48,NNW,338,0.0,0.0,94,0.00,OVC,,0.00,WeatherDisplay:10.37,2013-01-10 15:37:00,
2013-01-10 10:42:00,50.7,48.8,30.48,NNE,22,0.0,0.0,93,0.00,OVC,,0.00,WeatherDisplay:10.37,2013-01-10 15:42:00,
2013-01-10 10:47:00,51.1,49.1,30.48,WNW,292,0.0,0.0,93,0.00,OVC,,0.00,WeatherDisplay:10.37,2013-01-10 15:47:00,
2013-01-10 10:52:00,51.6,49.7,30.48,WNW,292,0.0,0.0,93,0.00,OVC,,0.00,WeatherDisplay:10.37,2013-01-10 15:52:00,
2013-01-10 10:57:00,52.0,50.0,30.47,WNW,292,0.0,0.0,93,0.00,OVC,,0.00,WeatherDisplay:10.37,2013-01-10 15:57:00,
2013-01-10 11:02:00,52.5,50.6,30.47,WNW,292,0.0,0.0,93,0.00,SCT,,0.00,WeatherDisplay:10.37,2013-01-10 16:02:00,
2013-01-10 11:07:00,52.9,50.9,30.47,WNW,292,0.0,0.0,93,0.00,SCT,,0.00,WeatherDisplay:10.37,2013-01-10 16:07:00,
2013-01-10 11:12:00,53.2,51.3,30.47,ENE,68,0.0,0.0,93,0.00,SCT,,0.00,WeatherDisplay:10.37,2013-01-10 16:12:00,
2013-01-10 11:18:00,53.8,51.8,30.47,ENE,68,0.0,0.0,93,0.00,SCT,,0.00,WeatherDisplay:10.37,2013-01-10 16:18:00,
2013-01-10 11:23:00,54.1,51.9,30.47,ENE,68,0.0,0.0,92,0.00,SCT,,0.00,WeatherDisplay:10.37,2013-01-10 16:23:00,
2013-01-10 11:28:00,54.5,52.2,30.47,ENE,68,0.0,0.0,92,0.00,SCT,,0.00,WeatherDisplay:10.37,2013-01-10 16:28:00,
2013-01-10 11:33:00,54.7,52.1,30.47,NE,45,0.0,0.0,91,0.00,SCT,,0.00,WeatherDisplay:10.37,2013-01-10 16:33:00,
2013-01-10 11:38:00,55.0,52.5,30.47,NE,45,0.0,0.0,91,0.00,SCT,,0.00,WeatherDisplay:10.37,2013-01-10 16:38:00,
2013-01-10 11:43:00,55.2,52.6,30.46,NE,45,0.0,0.0,91,0.00,SCT,,0.00,WeatherDisplay:10.37,2013-01-10 16:43:00,
2013-01-10 11:48:00,55.6,53.0,30.46,NE,45,0.0,0.0,91,0.00,SCT,,0.00,WeatherDisplay:10.37,2013-01-10 16:48:00,
2013-01-10 11:53:00,55.8,52.9,30.46,NE,45,0.0,0.0,90,0.00,SCT,,0.00,WeatherDisplay:10.37,2013-01-10 16:53:00,
2013-01-10 11:58:00,55.9,53.0,30.45,NE,45,0.0,0.0,90,0.00,SCT,,0.00,WeatherDisplay:10.37,2013-01-10 16:58:00,
2013-01-10 12:03:00,55.9,53.0,30.45,NE,45,0.0,0.0,90,0.00,OVC,,0.00,WeatherDisplay:10.37,2013-01-10 17:03:00,
2013-01-10 12:08:00,56.3,53.4,30.45,NE,45,0.0,0.0,90,0.00,OVC,,0.00,WeatherDisplay:10.37,2013-01-10 17:08:00,
2013-01-10 12:13:00,56.8,53.9,30.45,NE,45,0.0,0.0,90,0.00,OVC,,0.00,WeatherDisplay:10.37,2013-01-10 17:13:00,
2013-01-10 12:18:00,57.0,54.1,30.44,NE,45,0.0,0.0,90,0.00,OVC,,0.00,WeatherDisplay:10.37,2013-01-10 17:18:00,
2013-01-10 12:23:00,57.6,54.6,30.44,ESE,112,0.0,0.0,90,0.00,OVC,,0.00,WeatherDisplay:10.37,2013-01-10 17:23:00,
2013-01-10 12:28:00,58.1,54.9,30.43,NE,45,4.6,4.6,89,0.00,OVC,,0.00,WeatherDisplay:10.37,2013-01-10 17:28:00,
2013-01-10 12:34:00,58.6,55.4,30.43,North,0,0.0,0.0,89,0.00,OVC,,0.00,WeatherDisplay:10.37,2013-01-10 17:34:00,
2013-01-10 12:39:00,58.8,55.3,30.43,ENE,68,0.0,0.0,88,0.00,OVC,,0.00,WeatherDisplay:10.37,2013-01-10 17:39:00,
2013-01-10 12:44:00,59.2,55.6,30.42,NE,45,0.0,0.0,88,0.00,OVC,,0.00,WeatherDisplay:10.37,2013-01-10 17:44:00,
2013-01-10 12:49:00,59.4,55.5,30.42,North,0,0.0,0.0,87,0.00,OVC,,0.00,WeatherDisplay:10.37,2013-01-10 17:49:00,
2013-01-10 12:54:00,59.5,55.7,30.42,North,0,1.1,1.1,87,0.00,OVC,,0.00,WeatherDisplay:10.37,2013-01-10 17:54:00,
2013-01-10 12:59:00,59.7,55.8,30.42,North,0,0.0,0.0,87,0.00,OVC,,0.00,WeatherDisplay:10.37,2013-01-10 17:59:00,
2013-01-10 13:04:00,59.7,55.5,30.41,East,90,3.5,3.5,86,0.00,OVC,,0.00,WeatherDisplay:10.37,2013-01-10 18:04:00,
2013-01-10 13:09:00,60.1,55.6,30.41,ENE,68,2.3,2.3,85,0.00,OVC,,0.00,WeatherDisplay:10.37,2013-01-10 18:09:00,
2013-01-10 13:14:00,60.1,55.6,30.41,NE,45,3.5,3.5,85,0.00,OVC,,0.00,WeatherDisplay:10.37,2013-01-10 18:14:00,
2013-01-10 13:19:00,60.4,55.6,30.41,NE,45,0.0,0.0,84,0.00,OVC,,0.00,WeatherDisplay:10.37,2013-01-10 18:19:00,
2013-01-10 13:24:00,60.6,55.8,30.40,North,0,2.3,2.3,84,0.00,OVC,,0.00,WeatherDisplay:10.37,2013-01-10 18:24:00,
2013-01-10 13:29:00,61.0,56.1,30.40,NNW,338,3.5,3.5,84,0.00,OVC,,0.00,WeatherDisplay:10.37,2013-01-10 18:29:00,
2013-01-10 13:34:00,61.0,56.1,30.40,North,0,0.0,0.0,84,0.00,OVC,,0.00,WeatherDisplay:10.37,2013-01-10 18:34:00,
2013-01-10 13:39:00,61.3,56.5,30.40,North,0,3.1,3.1,84,0.00,OVC,,0.00,WeatherDisplay:10.37,2013-01-10 18:39:00,
2013-01-10 13:44:00,61.3,56.1,30.39,NE,45,0.0,0.0,83,0.00,OVC,,0.00,WeatherDisplay:10.37,2013-01-10 18:44:00,
2013-01-10 13:50:00,61.5,56.0,30.39,NE,45,3.5,0.0,82,0.00,OVC,,0.00,WeatherDisplay:10.37,2013-01-10 18:50:00,
2013-01-10 13:55:00,61.9,56.0,30.38,North,0,2.3,2.3,81,0.00,OVC,,0.00,WeatherDisplay:10.37,2013-01-10 18:55:00,
2013-01-10 14:00:00,62.2,56.0,30.39,ENE,68,2.3,2.3,80,0.00,OVC,,0.00,WeatherDisplay:10.37,2013-01-10 19:00:00,
2013-01-10 14:05:00,62.4,56.2,30.38,ENE,68,3.5,3.5,80,0.00,OVC,,0.00,WeatherDisplay:10.37,2013-01-10 19:05:00,
2013-01-10 14:10:00,62.4,55.5,30.38,ENE,68,0.0,0.0,78,0.00,OVC,,0.00,WeatherDisplay:10.37,2013-01-10 19:10:00,
2013-01-10 14:15:00,62.4,55.5,30.38,SSW,202,3.4,3.4,78,0.00,OVC,,0.00,WeatherDisplay:10.37,2013-01-10 19:15:00,
2013-01-10 14:20:00,62.8,55.5,30.39,SSE,158,0.0,0.0,77,0.00,OVC,,0.00,WeatherDisplay:10.37,2013-01-10 19:20:00,
2013-01-10 14:25:00,63.0,55.6,30.38,SSW,202,1.1,1.1,77,0.00,OVC,,0.00,WeatherDisplay:10.37,2013-01-10 19:25:00,
2013-01-10 14:30:00,63.1,55.4,30.38,WSW,248,2.3,2.3,76,0.00,OVC,,0.00,WeatherDisplay:10.37,2013-01-10 19:30:00,
2013-01-10 14:35:00,63.1,55.1,30.38,South,180,5.8,5.8,75,0.00,OVC,,0.00,WeatherDisplay:10.37,2013-01-10 19:35:00,
2013-01-10 14:40:00,63.1,55.1,30.38,SE,135,0.0,0.0,75,0.00,OVC,,0.00,WeatherDisplay:10.37,2013-01-10 19:40:00,
2013-01-10 14:46:00,63.1,55.1,30.39,SSW,202,0.0,0.0,75,0.00,OVC,,0.00,WeatherDisplay:10.37,2013-01-10 19:46:00,
2013-01-10 14:51:00,63.3,55.3,30.38,SE,135,3.5,3.5,75,0.00,OVC,,0.00,WeatherDisplay:10.37,2013-01-10 19:51:00,
2013-01-10 14:56:00,63.3,55.3,30.38,SSE,158,2.3,2.3,75,0.00,OVC,,0.00,WeatherDisplay:10.37,2013-01-10 19:56:00,
2013-01-10 15:01:00,63.3,55.3,30.38,SSE,158,0.0,0.0,75,0.00,OVC,,0.00,WeatherDisplay:10.37,2013-01-10 20:01:00,
2013-01-10 15:06:00,63.3,55.3,30.38,South,180,0.0,0.0,75,0.00,OVC,,0.00,WeatherDisplay:10.37,2013-01-10 20:06:00,
2013-01-10 15:11:00,63.3,55.3,30.38,South,180,1.1,0.0,75,0.00,OVC,,0.00,WeatherDisplay:10.37,2013-01-10 20:11:00,
2013-01-10 15:16:00,63.3,55.3,30.38,ESE,112,1.1,1.1,75,0.00,OVC,,0.00,WeatherDisplay:10.37,2013-01-10 20:16:00,
2013-01-10 15:21:00,63.1,55.1,30.38,South,180,1.1,1.1,75,0.00,OVC,,0.00,WeatherDisplay:10.37,2013-01-10 20:21:00,
2013-01-10 15:26:00,63.3,55.3,30.38,SSW,202,0.0,0.0,75,0.00,OVC,,0.00,WeatherDisplay:10.37,2013-01-10 20:26:00,
2013-01-10 15:31:00,63.3,55.3,30.38,SE,135,6.9,6.9,75,0.00,OVC,,0.00,WeatherDisplay:10.37,2013-01-10 20:31:00,
2013-01-10 15:36:00,63.3,55.3,30.38,SSE,158,1.1,1.1,75,0.00,OVC,,0.00,WeatherDisplay:10.37,2013-01-10 20:36:00,
2013-01-10 15:41:00,63.3,54.9,30.39,SSE,158,3.6,3.6,74,0.00,OVC,,0.00,WeatherDisplay:10.37,2013-01-10 20:41:00,
2013-01-10 15:46:00,63.3,54.9,30.38,SSW,202,2.3,2.3,74,0.00,OVC,,0.00,WeatherDisplay:10.37,2013-01-10 20:46:00,
2013-01-10 15:51:00,63.7,55.2,30.39,SSE,158,2.3,2.3,74,0.00,OVC,,0.00,WeatherDisplay:10.37,2013-01-10 20:51:00,
2013-01-10 15:56:00,63.5,55.4,30.39,SSE,158,2.3,0.0,75,0.00,OVC,,0.00,WeatherDisplay:10.37,2013-01-10 20:56:00,
2013-01-10 16:01:00,63.5,55.1,30.39,SW,225,1.8,1.8,74,0.00,CLR,,0.00,WeatherDisplay:10.37,2013-01-10 21:01:00,
2013-01-10 16:06:00,63.3,54.9,30.39,SSW,202,3.5,3.5,74,0.00,CLR,,0.00,WeatherDisplay:10.37,2013-01-10 21:06:00,
2013-01-10 16:11:00,63.1,54.7,30.39,SSE,158,0.0,0.0,74,0.00,CLR,,0.00,WeatherDisplay:10.37,2013-01-10 21:11:00,
2013-01-10 16:16:00,63.0,54.5,30.39,WSW,248,0.0,0.0,74,0.00,CLR,,0.00,WeatherDisplay:10.37,2013-01-10 21:16:00,
2013-01-10 16:22:00,62.8,54.4,30.39,SE,135,0.0,0.0,74,0.00,CLR,,0.00,WeatherDisplay:10.37,2013-01-10 21:22:00,
2013-01-10 16:27:00,62.6,54.2,30.39,SSE,158,0.0,0.0,74,0.00,CLR,,0.00,WeatherDisplay:10.37,2013-01-10 21:27:00,
2013-01-10 16:32:00,62.4,54.0,30.39,SSE,158,2.3,2.3,74,0.00,CLR,,0.00,WeatherDisplay:10.37,2013-01-10 21:32:00,
2013-01-10 16:37:00,62.2,53.8,30.39,SW,225,2.9,2.9,74,0.00,CLR,,0.00,WeatherDisplay:10.37,2013-01-10 21:37:00,
2013-01-10 16:42:00,61.9,53.5,30.39,SSW,202,0.0,0.0,74,0.00,CLR,,0.00,WeatherDisplay:10.37,2013-01-10 21:42:00,
2013-01-10 16:47:00,61.5,53.5,30.39,SW,225,0.0,0.0,75,0.00,CLR,,0.00,WeatherDisplay:10.37,2013-01-10 21:47:00,
2013-01-10 16:52:00,61.3,53.3,30.40,SSW,202,4.6,4.6,75,0.00,CLR,,0.00,WeatherDisplay:10.37,2013-01-10 21:52:00,
2013-01-10 16:57:00,61.0,53.0,30.40,SSW,202,4.6,4.6,75,0.00,CLR,,0.00,WeatherDisplay:10.37,2013-01-10 21:57:00,
2013-01-10 17:02:00,60.6,53.0,30.40,SSW,202,2.3,2.3,76,0.00,CLR,,0.00,WeatherDisplay:10.37,2013-01-10 22:02:00,
2013-01-10 17:07:00,60.4,52.8,30.40,SW,225,2.2,2.2,76,0.00,CLR,,0.00,WeatherDisplay:10.37,2013-01-10 22:07:00,
2013-01-10 17:12:00,60.1,52.5,30.40,WSW,248,3.5,3.5,76,0.00,CLR,,0.00,WeatherDisplay:10.37,2013-01-10 22:12:00,
2013-01-10 17:17:00,59.9,52.3,30.40,SW,225,0.0,0.0,76,0.00,CLR,,0.00,WeatherDisplay:10.37,2013-01-10 22:17:00,
2013-01-10 17:22:00,59.7,52.1,30.40,South,180,2.2,2.2,76,0.00,CLR,,0.00,WeatherDisplay:10.37,2013-01-10 22:22:00,
2013-01-10 17:28:00,59.7,52.1,30.39,SSW,202,2.3,0.0,76,0.00,CLR,,0.00,WeatherDisplay:10.37,2013-01-10 22:28:00,
2013-01-10 17:33:00,59.5,52.0,30.40,SSW,202,2.3,2.3,76,0.00,CLR,,0.00,WeatherDisplay:10.37,2013-01-10 22:33:00,
2013-01-10 17:38:00,59.5,52.3,30.40,SSW,202,0.0,0.0,77,0.00,CLR,,0.00,WeatherDisplay:10.37,2013-01-10 22:38:00,
2013-01-10 17:43:00,59.4,52.1,30.39,SW,225,0.0,0.0,77,0.00,CLR,,0.00,WeatherDisplay:10.37,2013-01-10 22:43:00,
2013-01-10 17:48:00,59.2,52.0,30.40,SW,225,0.0,0.0,77,0.00,CLR,,0.00,WeatherDisplay:10.37,2013-01-10 22:48:00,
2013-01-10 17:53:00,58.8,51.6,30.40,SW,225,0.0,0.0,77,0.00,CLR,,0.00,WeatherDisplay:10.37,2013-01-10 22:53:00,
2013-01-10 17:58:00,58.8,52.0,30.39,SW,225,0.0,0.0,78,0.00,CLR,,0.00,WeatherDisplay:10.37,2013-01-10 22:58:00,
2013-01-10 18:03:00,58.6,51.8,30.39,SW,225,0.0,0.0,78,0.00,CLR,,0.00,WeatherDisplay:10.37,2013-01-10 23:03:00,
2013-01-10 18:08:00,58.6,52.1,30.39,SW,225,3.5,0.0,79,0.00,CLR,,0.00,WeatherDisplay:10.37,2013-01-10 23:08:00,
2013-01-10 18:14:00,58.3,51.8,30.39,SW,225,0.0,0.0,79,0.00,CLR,,0.00,WeatherDisplay:10.37,2013-01-10 23:14:00,
2013-01-10 18:19:00,58.3,51.8,30.39,SW,225,0.0,0.0,79,0.00,CLR,,0.00,WeatherDisplay:10.37,2013-01-10 23:19:00,
2013-01-10 18:24:00,58.1,51.6,30.39,SSW,202,1.1,0.0,79,0.00,CLR,,0.00,WeatherDisplay:10.37,2013-01-10 23:24:00,
2013-01-10 18:29:00,58.1,51.6,30.39,SSW,202,0.0,0.0,79,0.00,CLR,,0.00,WeatherDisplay:10.37,2013-01-10 23:29:00,
2013-01-10 18:34:00,57.9,51.4,30.39,SSW,202,0.0,0.0,79,0.00,CLR,,0.00,WeatherDisplay:10.37,2013-01-10 23:34:00,
2013-01-10 18:39:00,57.9,51.4,30.39,SSW,202,0.0,0.0,79,0.00,CLR,,0.00,WeatherDisplay:10.37,2013-01-10 23:39:00,
2013-01-10 18:44:00,57.7,51.3,30.39,SSW,202,0.0,0.0,79,0.00,CLR,,0.00,WeatherDisplay:10.37,2013-01-10 23:44:00,
2013-01-10 18:49:00,57.4,50.9,30.39,WNW,292,0.0,0.0,79,0.00,CLR,,0.00,WeatherDisplay:10.37,2013-01-10 23:49:00,
2013-01-10 18:54:00,57.0,50.6,30.39,WNW,292,0.0,0.0,79,0.00,CLR,,0.00,WeatherDisplay:10.37,2013-01-10 23:54:00,
2013-01-10 18:59:00,56.5,50.0,30.39,NW,315,0.0,0.0,79,0.00,CLR,,0.00,WeatherDisplay:10.37,2013-01-10 23:59:00,
2013-01-10 19:04:00,56.1,50.0,30.40,NW,315,0.0,0.0,80,0.00,OVC,,0.00,WeatherDisplay:10.37,2013-01-11 00:04:00,
2013-01-10 19:09:00,55.6,49.5,30.39,NW,315,0.0,0.0,80,0.00,OVC,,0.00,WeatherDisplay:10.37,2013-01-11 00:09:00,
2013-01-10 19:14:00,55.2,49.2,30.39,NW,315,0.0,0.0,80,0.00,OVC,,0.00,WeatherDisplay:10.37,2013-01-11 00:14:00,
2013-01-10 19:19:00,54.7,48.6,30.39,NW,315,0.0,0.0,80,0.00,OVC,,0.00,WeatherDisplay:10.37,2013-01-11 00:19:00,
2013-01-10 19:24:00,54.3,48.6,30.38,SSE,158,1.1,1.1,81,0.00,OVC,,0.00,WeatherDisplay:10.37,2013-01-11 00:24:00,
2013-01-10 19:30:00,54.0,47.9,30.38,SSE,158,0.0,0.0,80,0.00,OVC,,0.00,WeatherDisplay:10.37,2013-01-11 00:30:00,
2013-01-10 19:35:00,53.4,47.7,30.39,West,270,0.0,0.0,81,0.00,OVC,,0.00,WeatherDisplay:10.37,2013-01-11 00:35:00,
2013-01-10 19:40:00,53.2,47.6,30.39,West,270,0.0,0.0,81,0.00,OVC,,0.00,WeatherDisplay:10.37,2013-01-11 00:40:00,
2013-01-10 19:45:00,52.9,47.5,30.39,NNW,338,0.0,0.0,82,0.00,OVC,,0.00,WeatherDisplay:10.37,2013-01-11 00:45:00,
2013-01-10 19:50:00,52.7,47.4,30.38,NNW,338,0.0,0.0,82,0.00,OVC,,0.00,WeatherDisplay:10.37,2013-01-11 00:50:00,
2013-01-10 19:55:00,52.5,47.5,30.38,NNW,338,0.0,0.0,83,0.00,OVC,,0.00,WeatherDisplay:10.37,2013-01-11 00:55:00,
2013-01-10 20:00:00,52.3,47.3,30.38,SW,225,0.0,0.0,83,0.00,OVC,,0.00,WeatherDisplay:10.37,2013-01-11 01:00:00,
2013-01-10 20:05:00,52.2,47.2,30.38,SW,225,0.0,0.0,83,0.00,OVC,,0.00,WeatherDisplay:10.37,2013-01-11 01:05:00,
2013-01-10 20:10:00,52.2,47.5,30.38,SW,225,0.0,0.0,84,0.00,OVC,,0.00,WeatherDisplay:10.37,2013-01-11 01:10:00,
2013-01-10 20:16:00,52.2,47.5,30.38,WNW,292,0.0,0.0,84,0.00,OVC,,0.00,WeatherDisplay:10.37,2013-01-11 01:16:00,
2013-01-10 20:21:00,52.2,47.5,30.37,WNW,292,0.0,0.0,84,0.00,OVC,,0.00,WeatherDisplay:10.37,2013-01-11 01:21:00,
2013-01-10 20:26:00,52.3,48.0,30.37,WNW,292,0.0,0.0,85,0.00,OVC,,0.00,WeatherDisplay:10.37,2013-01-11 01:26:00,
2013-01-10 20:31:00,52.3,48.0,30.37,WNW,292,0.0,0.0,85,0.00,OVC,,0.00,WeatherDisplay:10.37,2013-01-11 01:31:00,
2013-01-10 20:36:00,52.3,48.0,30.37,WNW,292,0.0,0.0,85,0.00,OVC,,0.00,WeatherDisplay:10.37,2013-01-11 01:36:00,
2013-01-10 20:41:00,52.3,48.0,30.37,WSW,248,3.5,3.5,85,0.00,OVC,,0.00,WeatherDisplay:10.37,2013-01-11 01:41:00,
2013-01-10 20:46:00,52.3,48.3,30.38,NE,45,0.0,0.0,86,0.00,OVC,,0.00,WeatherDisplay:10.37,2013-01-11 01:46:00,
2013-01-10 20:51:00,52.5,48.5,30.38,NE,45,0.0,0.0,86,0.00,OVC,,0.00,WeatherDisplay:10.37,2013-01-11 01:51:00,
2013-01-10 20:56:00,52.5,48.5,30.37,NE,45,0.0,0.0,86,0.00,OVC,,0.00,WeatherDisplay:10.37,2013-01-11 01:56:00,
2013-01-10 21:01:00,52.7,48.6,30.38,NE,45,0.0,0.0,86,0.00,OVC,,0.00,WeatherDisplay:10.37,2013-01-11 02:01:00,
2013-01-10 21:06:00,52.9,48.8,30.37,NE,45,0.0,0.0,86,0.00,OVC,,0.00,WeatherDisplay:10.37,2013-01-11 02:06:00,
2013-01-10 21:11:00,52.9,48.8,30.37,NE,45,0.0,0.0,86,0.00,OVC,,0.00,WeatherDisplay:10.37,2013-01-11 02:11:00,
2013-01-10 21:16:00,52.9,48.8,30.37,NE,45,0.0,0.0,86,0.00,OVC,,0.00,WeatherDisplay:10.37,2013-01-11 02:16:00,
2013-01-10 21:21:00,52.9,48.8,30.37,NE,45,0.0,0.0,86,0.00,OVC,,0.00,WeatherDisplay:10.37,2013-01-11 02:21:00,
2013-01-10 21:26:00,52.9,48.8,30.37,NE,45,0.0,0.0,86,0.00,OVC,,0.00,WeatherDisplay:10.37,2013-01-11 02:26:00,
2013-01-10 21:32:00,52.7,48.6,30.37,NE,45,0.0,0.0,86,0.00,OVC,,0.00,WeatherDisplay:10.37,2013-01-11 02:32:00,
2013-01-10 21:37:00,52.7,48.6,30.37,NE,45,0.0,0.0,86,0.00,OVC,,0.00,WeatherDisplay:10.37,2013-01-11 02:37:00,
2013-01-10 21:42:00,52.7,48.6,30.37,NE,45,0.0,0.0,86,0.00,OVC,,0.00,WeatherDisplay:10.37,2013-01-11 02:42:00,
2013-01-10 21:47:00,52.7,48.6,30.37,NE,45,0.0,0.0,86,0.00,OVC,,0.00,WeatherDisplay:10.37,2013-01-11 02:47:00,
2013-01-10 21:52:00,52.9,48.8,30.37,NE,45,0.0,0.0,86,0.00,OVC,,0.00,WeatherDisplay:10.37,2013-01-11 02:52:00,
2013-01-10 21:57:00,52.9,48.8,30.37,NE,45,0.0,0.0,86,0.00,OVC,,0.00,WeatherDisplay:10.37,2013-01-11 02:57:00,
2013-01-10 22:02:00,52.7,48.6,30.36,NE,45,0.0,0.0,86,0.00,OVC,,0.00,WeatherDisplay:10.37,2013-01-11 03:02:00,
2013-01-10 22:07:00,52.7,48.6,30.36,NE,45,0.0,0.0,86,0.00,OVC,,0.00,WeatherDisplay:10.37,2013-01-11 03:07:00,
2013-01-10 22:12:00,52.7,48.9,30.36,NE,45,0.0,0.0,87,0.00,OVC,,0.00,WeatherDisplay:10.37,2013-01-11 03:12:00,
2013-01-10 22:17:00,52.7,48.9,30.36,NE,45,0.0,0.0,87,0.00,OVC,,0.00,WeatherDisplay:10.37,2013-01-11 03:17:00,
2013-01-10 22:22:00,52.7,48.9,30.36,NE,45,0.0,0.0,87,0.00,OVC,,0.00,WeatherDisplay:10.37,2013-01-11 03:22:00,
2013-01-10 22:27:00,52.7,48.9,30.35,NNW,338,0.0,0.0,87,0.00,OVC,,0.00,WeatherDisplay:10.37,2013-01-11 03:27:00,
2013-01-10 22:32:00,52.7,49.2,30.35,NNW,338,0.0,0.0,88,0.00,OVC,,0.00,WeatherDisplay:10.37,2013-01-11 03:32:00,
2013-01-10 22:37:00,52.7,49.2,30.35,NNW,338,0.0,0.0,88,0.00,OVC,,0.00,WeatherDisplay:10.37,2013-01-11 03:37:00,
2013-01-10 22:42:00,52.7,49.2,30.35,North,0,0.0,0.0,88,0.00,OVC,,0.00,WeatherDisplay:10.37,2013-01-11 03:42:00,
2013-01-10 22:48:00,52.7,49.2,30.35,North,0,0.0,0.0,88,0.00,OVC,,0.00,WeatherDisplay:10.37,2013-01-11 03:48:00,
2013-01-10 22:53:00,52.7,49.2,30.35,North,0,0.0,0.0,88,0.00,OVC,,0.00,WeatherDisplay:10.37,2013-01-11 03:53:00,
2013-01-10 22:58:00,52.7,49.2,30.34,North,0,0.0,0.0,88,0.00,OVC,,0.00,WeatherDisplay:10.37,2013-01-11 03:58:00,
2013-01-10 23:03:00,52.7,49.2,30.34,North,0,0.0,0.0,88,0.00,OVC,,0.00,WeatherDisplay:10.37,2013-01-11 04:03:00,
2013-01-10 23:08:00,52.7,49.2,30.35,North,0,0.0,0.0,88,0.03,RA,,0.03,WeatherDisplay:10.37,2013-01-11 04:08:00,
2013-01-10 23:13:00,52.5,49.4,30.34,North,0,0.0,0.0,89,0.03,RA,,0.03,WeatherDisplay:10.37,2013-01-11 04:13:00,
2013-01-10 23:18:00,52.5,49.4,30.34,North,0,0.0,0.0,89,0.03,OVC,,0.03,WeatherDisplay:10.37,2013-01-11 04:18:00,
2013-01-10 23:23:00,52.5,49.4,30.34,North,0,0.0,0.0,89,0.06,RA,,0.06,WeatherDisplay:10.37,2013-01-11 04:23:00,
2013-01-10 23:28:00,52.5,49.4,30.34,North,0,0.0,0.0,89,0.06,RA,,0.06,WeatherDisplay:10.37,2013-01-11 04:28:00,
2013-01-10 23:33:00,52.5,49.4,30.34,SSE,158,0.0,0.0,89,0.06,OVC,,0.06,WeatherDisplay:10.37,2013-01-11 04:33:00,
2013-01-10 23:38:00,52.5,49.7,30.34,SSE,158,0.0,0.0,90,0.09,RA,,0.09,WeatherDisplay:10.37,2013-01-11 04:38:00,
2013-01-10 23:43:00,52.5,49.7,30.34,SSW,202,0.0,0.1,90,0.09,RA,,0.09,WeatherDisplay:10.37,2013-01-11 04:43:00,
2013-01-10 23:48:00,52.7,49.8,30.34,SW,225,2.9,2.9,90,0.09,OVC,,0.09,WeatherDisplay:10.37,2013-01-11 04:48:00,
2013-01-10 23:53:00,52.9,50.3,30.33,SW,225,0.0,0.0,91,0.12,RA,,0.12,WeatherDisplay:10.37,2013-01-11 04:53:00,
2013-01-10 23:58:00,52.9,50.3,30.33,SSW,202,0.0,0.0,91,0.12,RA,,0.12,WeatherDisplay:10.37,2013-01-11 04:58:00,